IBE0125 LEMD-SPJC

Flight info

Callsign IBE0125
Flight time N/A
Altitude 31000
Route CCS DCT ELVAR/N0495F350 DCT LUTAK/M085F360 DCT 35N020W 30N030W 27N035W 23N040W/M085F380 DCT QUETN/N0493F380 DCT 15N050W DCT TRAPP/N0487F400 UM527 VADOS
Aircraft A359/H-SDE2E3GHIJ3J4J5LM1ORWXY/LB1D1

Departure

Time 2026-05-08 05:56
Airport Adolfo Suárez Madrid–Barajas Airport (LEMD)

Arrival

Time N/A
Airport Jorge Chávez International Airport (SPJC)
Time Latitude Longitude Altitude Speed Heading
2026-05-08 04:28 40.49911 -3.56653 1981 ft 0 kts 268°
2026-05-08 04:28 40.49910 -3.56656 1981 ft 0 kts 269°
2026-05-08 05:41 40.49910 -3.56640 1981 ft 4 kts 269°
2026-05-08 05:41 40.49911 -3.56605 1978 ft 4 kts 269°
2026-05-08 05:42 40.49910 -3.56577 1978 ft 4 kts 287°
2026-05-08 05:42 40.49897 -3.56551 1979 ft 4 kts 340°
2026-05-08 05:42 40.49873 -3.56547 1980 ft 4 kts 359°
2026-05-08 05:42 40.49858 -3.56547 1979 ft 0 kts 359°
2026-05-08 05:47 40.49863 -3.56547 1978 ft 3 kts 360°
2026-05-08 05:47 40.49909 -3.56548 1979 ft 8 kts 359°
2026-05-08 05:47 40.49965 -3.56548 1983 ft 8 kts 360°
2026-05-08 05:48 40.50013 -3.56559 1984 ft 6 kts 323°
2026-05-08 05:48 40.50025 -3.56618 1984 ft 10 kts 273°
2026-05-08 05:48 40.50025 -3.56733 1987 ft 16 kts 270°
2026-05-08 05:48 40.50025 -3.56896 1987 ft 17 kts 269°
2026-05-08 05:49 40.50024 -3.57031 1988 ft 13 kts 269°
2026-05-08 05:49 40.49996 -3.57110 1992 ft 8 kts 211°
2026-05-08 05:49 40.49945 -3.57119 1995 ft 8 kts 182°
2026-05-08 05:49 40.49879 -3.57120 1997 ft 12 kts 180°
2026-05-08 05:50 40.49773 -3.57120 1995 ft 17 kts 180°
2026-05-08 05:50 40.49654 -3.57119 1994 ft 17 kts 179°
2026-05-08 05:50 40.49528 -3.57118 1990 ft 19 kts 180°
2026-05-08 05:50 40.49391 -3.57116 1988 ft 20 kts 179°
2026-05-08 05:51 40.49257 -3.57116 1990 ft 18 kts 180°
2026-05-08 05:51 40.49148 -3.57115 1991 ft 15 kts 179°
2026-05-08 05:51 40.49074 -3.57118 1990 ft 8 kts 197°
2026-05-08 05:51 40.49057 -3.57170 1992 ft 6 kts 269°
2026-05-08 05:52 40.49056 -3.57215 1994 ft 4 kts 270°
2026-05-08 05:52 40.49056 -3.57249 1995 ft 3 kts 270°
2026-05-08 05:52 40.49056 -3.57253 1995 ft 0 kts 270°
2026-05-08 05:53 40.49067 -3.57302 1994 ft 11 kts 298°
2026-05-08 05:54 40.49115 -3.57375 1997 ft 10 kts 314°
2026-05-08 05:54 40.49169 -3.57434 1997 ft 10 kts 332°
2026-05-08 05:54 40.49243 -3.57449 1996 ft 12 kts 358°
2026-05-08 05:54 40.49268 -3.57450 1996 ft 0 kts 359°
2026-05-08 05:55 40.49273 -3.57450 1995 ft 5 kts 359°
2026-05-08 05:55 40.49463 -3.57452 1991 ft 57 kts 360°
2026-05-08 05:56 40.50055 -3.57456 1995 ft 112 kts 360°
2026-05-08 05:56 40.50998 -3.57464 2008 ft 158 kts 359°
2026-05-08 05:56 40.52219 -3.57477 2225 ft 180 kts 359°
2026-05-08 05:56 40.53425 -3.57544 2925 ft 174 kts 359°
2026-05-08 05:57 40.54681 -3.57524 3195 ft 188 kts
2026-05-08 05:57 40.56005 -3.57138 3391 ft 203 kts 19°
2026-05-08 05:57 40.57384 -3.56526 3661 ft 214 kts 20°
2026-05-08 05:57 40.58822 -3.55865 3962 ft 224 kts 20°
2026-05-08 05:58 40.60347 -3.55253 4297 ft 232 kts 16°
2026-05-08 05:58 40.61938 -3.54758 4754 ft 237 kts 13°
2026-05-08 05:58 40.63577 -3.54336 5215 ft 241 kts 14°
2026-05-08 05:58 40.65245 -3.54041 5745 ft 244 kts
2026-05-08 05:59 40.66959 -3.53915 6184 ft 248 kts
2026-05-08 05:59 40.68694 -3.54079 6616 ft 255 kts 343°
2026-05-08 05:59 40.70192 -3.55273 7051 ft 257 kts 310°
2026-05-08 05:59 40.71025 -3.57374 7306 ft 265 kts 281°
2026-05-08 06:00 40.71380 -3.59779 7755 ft 269 kts 272°
2026-05-08 06:00 40.71222 -3.62205 8339 ft 265 kts 250°
2026-05-08 06:00 40.70357 -3.64312 8976 ft 262 kts 230°
2026-05-08 06:00 40.69214 -3.66190 9582 ft 264 kts 228°
2026-05-08 06:01 40.68036 -3.68053 10190 ft 265 kts 228°
2026-05-08 06:01 40.66858 -3.69933 10738 ft 267 kts 229°
2026-05-08 06:01 40.65682 -3.71842 11300 ft 270 kts 230°
2026-05-08 06:01 40.64764 -3.74013 11834 ft 276 kts 250°
2026-05-08 06:02 40.64451 -3.76574 12201 ft 292 kts 264°
2026-05-08 06:02 40.64387 -3.79307 12466 ft 306 kts 266°
2026-05-08 06:02 40.64345 -3.82172 12728 ft 320 kts 266°
2026-05-08 06:02 40.64294 -3.85089 12983 ft 333 kts 266°
2026-05-08 06:03 40.64230 -3.88267 13278 ft 345 kts 265°
2026-05-08 06:03 40.64158 -3.91476 13510 ft 358 kts 266°
2026-05-08 06:03 40.64081 -3.94806 13775 ft 370 kts 266°
2026-05-08 06:03 40.63998 -3.98238 14021 ft 380 kts 266°
2026-05-08 06:04 40.63913 -4.01734 14464 ft 384 kts 266°
2026-05-08 06:04 40.63826 -4.05255 14946 ft 386 kts 265°
2026-05-08 06:04 40.63738 -4.08752 15472 ft 388 kts 265°
2026-05-08 06:04 40.63646 -4.12325 15884 ft 392 kts 265°
2026-05-08 06:05 40.63551 -4.15928 16322 ft 396 kts 265°
2026-05-08 06:05 40.63458 -4.19556 16861 ft 397 kts 265°
2026-05-08 06:05 40.63361 -4.23202 17361 ft 400 kts 265°
2026-05-08 06:05 40.63260 -4.26868 17867 ft 402 kts 265°
2026-05-08 06:06 40.63158 -4.30568 18332 ft 406 kts 265°
2026-05-08 06:06 40.63054 -4.34293 18737 ft 410 kts 265°
2026-05-08 06:06 40.62949 -4.38047 19217 ft 412 kts 265°
2026-05-08 06:06 40.62841 -4.41831 19705 ft 414 kts 265°
2026-05-08 06:07 40.62731 -4.45630 20140 ft 417 kts 265°
2026-05-08 06:07 40.62618 -4.49461 20598 ft 420 kts 265°
2026-05-08 06:07 40.62292 -4.53276 21034 ft 420 kts 254°
2026-05-08 06:07 40.61270 -4.56853 21494 ft 417 kts 238°
2026-05-08 06:08 40.59658 -4.60038 21895 ft 420 kts 232°
2026-05-08 06:08 40.57894 -4.63128 22271 ft 424 kts 231°
2026-05-08 06:08 40.56109 -4.66228 22756 ft 426 kts 231°
2026-05-08 06:08 40.54320 -4.69348 23200 ft 429 kts 231°
2026-05-08 06:09 40.52521 -4.72493 23592 ft 432 kts 231°
2026-05-08 06:09 40.50713 -4.75657 23980 ft 434 kts 231°
2026-05-08 06:09 40.48899 -4.78834 24350 ft 436 kts 231°
2026-05-08 06:09 40.47073 -4.82030 24720 ft 439 kts 232°
2026-05-08 06:10 40.45237 -4.85242 25130 ft 440 kts 231°
2026-05-08 06:10 40.43393 -4.88466 25470 ft 443 kts 232°
2026-05-08 06:10 40.41536 -4.91716 25828 ft 446 kts 231°
2026-05-08 06:10 40.39669 -4.94971 26240 ft 447 kts 232°
2026-05-08 06:11 40.37790 -4.98240 26530 ft 451 kts 232°
2026-05-08 06:11 40.35896 -5.01535 26894 ft 452 kts 233°
2026-05-08 06:11 40.34008 -5.04818 27378 ft 452 kts 233°
2026-05-08 06:11 40.32131 -5.08079 27620 ft 456 kts 233°
2026-05-08 06:12 40.30214 -5.11404 28030 ft 456 kts 233°
2026-05-08 06:12 40.28293 -5.14734 28287 ft 461 kts 233°
2026-05-08 06:12 40.26352 -5.18094 28554 ft 463 kts 233°
2026-05-08 06:12 40.24407 -5.21457 28939 ft 464 kts 233°
2026-05-08 06:13 40.22451 -5.24839 29113 ft 469 kts 233°
2026-05-08 06:13 40.20480 -5.28240 29460 ft 469 kts 233°
2026-05-08 06:13 40.18505 -5.31644 29735 ft 471 kts 233°
2026-05-08 06:13 40.16511 -5.35076 29905 ft 475 kts 235°
2026-05-08 06:14 40.14506 -5.38526 30067 ft 478 kts 235°
2026-05-08 06:14 40.12492 -5.41987 30364 ft 478 kts 236°
2026-05-08 06:14 40.10481 -5.45437 30713 ft 476 kts 236°
2026-05-08 06:14 40.08479 -5.48869 31029 ft 475 kts 236°
2026-05-08 06:15 40.06476 -5.52300 31309 ft 475 kts 236°
2026-05-08 06:15 40.04476 -5.55723 31580 ft 474 kts 236°
2026-05-08 06:15 40.02465 -5.59159 31855 ft 473 kts 236°
2026-05-08 06:15 40.00468 -5.62567 32134 ft 473 kts 236°
2026-05-08 06:16 39.98471 -5.65973 32406 ft 472 kts 236°
2026-05-08 06:16 39.96501 -5.69327 32663 ft 471 kts 236°
2026-05-08 06:16 39.94482 -5.72763 32911 ft 470 kts 237°
2026-05-08 06:16 39.92525 -5.76087 33256 ft 468 kts 237°
2026-05-08 06:17 39.88571 -5.82796 33770 ft 466 kts 237°
2026-05-08 06:17 39.86601 -5.86134 34012 ft 464 kts 237°
2026-05-08 06:17 39.84638 -5.89456 34238 ft 463 kts 237°
2026-05-08 06:18 39.82677 -5.92774 34358 ft 463 kts 237°
2026-05-08 06:18 39.80711 -5.96094 34509 ft 463 kts 237°
2026-05-08 06:18 39.78743 -5.99416 34650 ft 464 kts 237°
2026-05-08 06:18 39.76772 -6.02738 34807 ft 464 kts 237°
2026-05-08 06:19 39.74802 -6.06055 34940 ft 464 kts 237°
2026-05-08 06:19 39.72830 -6.09370 35080 ft 463 kts 237°
2026-05-08 06:19 39.70866 -6.12667 35330 ft 460 kts 237°
2026-05-08 06:19 39.68912 -6.15947 35553 ft 459 kts 237°
2026-05-08 06:20 39.66959 -6.19222 35654 ft 459 kts 237°
2026-05-08 06:20 39.65004 -6.22497 35754 ft 459 kts 237°
2026-05-08 06:20 39.61083 -6.29054 35884 ft 461 kts 237°
2026-05-08 06:21 39.57776 -6.34577 35886 ft 464 kts 237°
2026-05-08 06:21 39.53857 -6.41127 35883 ft 462 kts 239°
2026-05-08 06:22 39.50549 -6.48152 35864 ft 454 kts 248°
2026-05-08 06:22 39.47746 -6.55413 35883 ft 448 kts 249°
2026-05-08 06:23 39.45035 -6.62670 35881 ft 447 kts 249°
2026-05-08 06:23 39.42294 -6.69898 35881 ft 448 kts 249°
2026-05-08 06:24 39.39522 -6.77107 35879 ft 448 kts 249°
2026-05-08 06:24 39.36736 -6.84306 35853 ft 446 kts 249°
2026-05-08 06:25 39.33971 -6.91430 35879 ft 441 kts 249°
2026-05-08 06:25 39.31223 -6.98504 35881 ft 440 kts 249°
2026-05-08 06:26 39.28476 -7.05568 35882 ft 440 kts 249°
2026-05-08 06:26 39.25721 -7.12629 35882 ft 440 kts 249°
2026-05-08 06:27 39.22967 -7.19685 35884 ft 440 kts 249°
2026-05-08 06:27 39.20797 -7.26982 35881 ft 435 kts 256°
2026-05-08 06:28 39.18939 -7.34400 35885 ft 435 kts 257°
2026-05-08 06:28 39.17126 -7.41837 35886 ft 435 kts 257°
2026-05-08 06:29 39.15307 -7.49265 35891 ft 435 kts 256°
2026-05-08 06:29 39.13473 -7.56693 35889 ft 435 kts 256°
2026-05-08 06:30 39.11644 -7.64061 35892 ft 436 kts 256°
2026-05-08 06:30 39.09793 -7.71493 35888 ft 436 kts 256°
2026-05-08 06:31 39.07936 -7.78928 35891 ft 436 kts 256°
2026-05-08 06:31 39.06074 -7.86356 35891 ft 436 kts 256°
2026-05-08 06:32 39.04211 -7.93772 35894 ft 436 kts 256°
2026-05-08 06:32 39.02342 -8.01189 35895 ft 436 kts 256°
2026-05-08 06:33 39.00468 -8.08599 35895 ft 436 kts 256°
2026-05-08 06:33 38.98588 -8.16010 35894 ft 436 kts 256°
2026-05-08 06:34 38.96704 -8.23416 35894 ft 436 kts 256°
2026-05-08 06:34 38.94815 -8.30818 35895 ft 436 kts 256°
2026-05-08 06:35 38.92923 -8.38214 35897 ft 436 kts 255°
2026-05-08 06:35 38.91028 -8.45599 35900 ft 435 kts 255°
2026-05-08 06:36 38.89130 -8.52971 35903 ft 435 kts 255°
2026-05-08 06:36 38.87225 -8.60348 35907 ft 435 kts 255°
2026-05-08 06:37 38.85317 -8.67713 35916 ft 435 kts 255°
2026-05-08 06:37 38.83405 -8.75078 35921 ft 435 kts 255°
2026-05-08 06:38 38.81503 -8.82380 35929 ft 434 kts 255°
2026-05-08 06:38 38.79584 -8.89720 35933 ft 434 kts 255°
2026-05-08 06:39 38.77661 -8.97059 35911 ft 434 kts 255°
2026-05-08 06:39 38.75738 -9.04376 35938 ft 432 kts 254°
2026-05-08 06:40 38.73817 -9.11665 35935 ft 431 kts 254°
2026-05-08 06:40 38.71899 -9.18921 35937 ft 430 kts 254°
2026-05-08 06:41 38.69976 -9.26178 35939 ft 430 kts 254°
2026-05-08 06:41 38.68048 -9.33426 35939 ft 430 kts 254°
2026-05-08 06:42 38.66116 -9.40671 35941 ft 430 kts 254°
2026-05-08 06:42 38.64181 -9.47911 35946 ft 430 kts 253°
2026-05-08 06:43 38.62243 -9.55138 35944 ft 430 kts 253°
2026-05-08 06:43 38.60300 -9.62364 35944 ft 430 kts 253°
2026-05-08 06:44 38.58352 -9.69587 35950 ft 429 kts 253°
2026-05-08 06:44 38.56403 -9.76794 35949 ft 429 kts 253°
2026-05-08 06:45 38.54447 -9.84006 35951 ft 429 kts 253°
2026-05-08 06:45 38.52491 -9.91202 35952 ft 429 kts 253°
2026-05-08 06:46 38.50530 -9.98391 35955 ft 428 kts 253°
2026-05-08 06:46 38.48580 -10.05520 35954 ft 429 kts 253°
2026-05-08 06:47 38.46610 -10.12703 35954 ft 429 kts 253°
2026-05-08 06:47 38.44637 -10.19881 35929 ft 428 kts 253°
2026-05-08 06:48 38.42667 -10.27025 35952 ft 425 kts 252°
2026-05-08 06:48 38.40701 -10.34134 35965 ft 425 kts 252°
2026-05-08 06:49 38.38732 -10.41236 35958 ft 425 kts 252°
2026-05-08 06:49 38.36758 -10.48335 35964 ft 425 kts 252°
2026-05-08 06:50 38.34780 -10.55433 35960 ft 425 kts 252°
2026-05-08 06:50 38.32798 -10.62526 35966 ft 425 kts 252°
2026-05-08 06:51 38.30812 -10.69611 35962 ft 425 kts 252°
2026-05-08 06:51 38.28821 -10.76695 35968 ft 425 kts 252°
2026-05-08 06:52 38.26826 -10.83775 35969 ft 425 kts 251°
2026-05-08 06:52 38.24826 -10.90853 35976 ft 425 kts 251°
2026-05-08 06:53 38.22823 -10.97926 35957 ft 425 kts 251°
2026-05-08 06:53 38.20816 -11.04991 35957 ft 425 kts 251°
2026-05-08 06:54 38.18819 -11.12001 35970 ft 425 kts 251°
2026-05-08 06:54 38.16805 -11.19054 35969 ft 425 kts 251°
2026-05-08 06:55 38.14786 -11.26106 35959 ft 425 kts 251°
2026-05-08 06:55 38.12764 -11.33151 35970 ft 424 kts 250°
2026-05-08 06:56 38.10741 -11.40182 35974 ft 423 kts 250°
2026-05-08 06:56 38.08714 -11.47203 35966 ft 423 kts 250°
2026-05-08 06:57 38.06686 -11.54211 35972 ft 423 kts 250°
2026-05-08 06:57 38.04655 -11.61212 35972 ft 423 kts 250°
2026-05-08 06:58 38.02621 -11.68206 35973 ft 423 kts 250°
2026-05-08 06:58 38.00583 -11.75197 35977 ft 423 kts 250°
2026-05-08 06:59 37.98539 -11.82186 35972 ft 423 kts 250°
2026-05-08 06:59 37.96507 -11.89121 35976 ft 423 kts 250°
2026-05-08 07:00 37.94456 -11.96101 35977 ft 423 kts 250°
2026-05-08 07:00 37.92400 -12.03079 35977 ft 423 kts 250°
2026-05-08 07:01 37.90341 -12.10051 35976 ft 422 kts 250°
2026-05-08 07:01 37.88282 -12.17006 35976 ft 422 kts 250°
2026-05-08 07:02 37.86216 -12.23963 35975 ft 422 kts 249°
2026-05-08 07:02 37.84147 -12.30912 35980 ft 422 kts 249°
2026-05-08 07:03 37.82076 -12.37854 35980 ft 422 kts 249°
2026-05-08 07:03 37.80001 -12.44793 35977 ft 422 kts 249°
2026-05-08 07:04 37.77923 -12.51724 35983 ft 421 kts 249°
2026-05-08 07:04 37.75855 -12.58601 35983 ft 421 kts 249°
2026-05-08 07:05 37.73769 -12.65520 35976 ft 421 kts 249°
2026-05-08 07:05 37.71678 -12.72439 35981 ft 421 kts 249°
2026-05-08 07:06 37.69585 -12.79351 35971 ft 421 kts 248°
2026-05-08 07:06 37.67486 -12.86264 35977 ft 422 kts 248°
2026-05-08 07:07 37.65382 -12.93177 35973 ft 422 kts 248°
2026-05-08 07:07 37.63273 -13.00087 35973 ft 422 kts 248°
2026-05-08 07:08 37.61160 -13.06992 35994 ft 422 kts 248°
2026-05-08 07:08 37.59044 -13.13892 35988 ft 422 kts 248°
2026-05-08 07:09 37.56924 -13.20787 35980 ft 422 kts 248°
2026-05-08 07:09 37.54801 -13.27677 35980 ft 422 kts 248°
2026-05-08 07:10 37.52672 -13.34567 35979 ft 422 kts 248°
2026-05-08 07:10 37.50555 -13.41403 35982 ft 422 kts 248°
2026-05-08 07:11 37.48420 -13.48281 35984 ft 422 kts 248°
2026-05-08 07:11 37.46281 -13.55156 35982 ft 422 kts 247°
2026-05-08 07:12 37.44137 -13.62027 35983 ft 422 kts 247°
2026-05-08 07:12 37.42337 -13.67781 35982 ft 422 kts 247°
2026-05-08 07:13 37.40186 -13.74645 35979 ft 422 kts 247°
2026-05-08 07:13 37.38031 -13.81507 35979 ft 422 kts 247°
2026-05-08 07:14 37.35874 -13.88360 35986 ft 421 kts 247°
2026-05-08 07:14 37.33721 -13.95181 35985 ft 420 kts 247°
2026-05-08 07:15 37.31577 -14.01954 35985 ft 420 kts 246°
2026-05-08 07:15 37.29416 -14.08767 35986 ft 420 kts 246°
2026-05-08 07:16 37.27251 -14.15576 35985 ft 420 kts 246°
2026-05-08 07:16 37.25083 -14.22383 36005 ft 420 kts 245°
2026-05-08 07:17 37.22909 -14.29192 35987 ft 421 kts 245°
2026-05-08 07:17 37.20729 -14.36001 35988 ft 421 kts 245°
2026-05-08 07:18 37.18544 -14.42809 35985 ft 421 kts 245°
2026-05-08 07:18 37.16355 -14.49611 35985 ft 421 kts 245°
2026-05-08 07:19 37.14161 -14.56414 35985 ft 421 kts 245°
2026-05-08 07:19 37.11958 -14.63232 35986 ft 424 kts 245°
2026-05-08 07:20 37.09734 -14.70093 35989 ft 425 kts 245°
2026-05-08 07:20 37.07506 -14.76957 35984 ft 425 kts 245°
2026-05-08 07:21 37.05275 -14.83813 35991 ft 425 kts 245°
2026-05-08 07:21 37.03038 -14.90670 35987 ft 425 kts 245°
2026-05-08 07:22 37.00793 -14.97529 35991 ft 427 kts 245°
2026-05-08 07:22 36.98473 -15.04398 35978 ft 429 kts 243°
2026-05-08 07:23 36.95949 -15.11128 35987 ft 427 kts 242°
2026-05-08 07:23 36.93404 -15.17821 35987 ft 426 kts 242°
2026-05-08 07:24 36.90898 -15.24490 35990 ft 426 kts 242°
2026-05-08 07:24 36.88392 -15.31206 35991 ft 427 kts 242°
2026-05-08 07:25 36.85886 -15.37923 35993 ft 427 kts 242°
2026-05-08 07:26 36.82118 -15.47987 35993 ft 427 kts 242°
2026-05-08 07:26 36.79601 -15.54688 35993 ft 427 kts 242°
2026-05-08 07:27 36.77079 -15.61389 35995 ft 427 kts 242°
2026-05-08 07:27 36.74551 -15.68089 35996 ft 428 kts 242°
2026-05-08 07:28 36.72003 -15.74829 35994 ft 430 kts 242°
2026-05-08 07:28 36.69447 -15.81576 35991 ft 431 kts 242°
2026-05-08 07:29 36.66887 -15.88321 35991 ft 431 kts 242°
2026-05-08 07:29 36.64323 -15.95061 35991 ft 431 kts 242°
2026-05-08 07:30 36.61754 -16.01798 35987 ft 431 kts 242°
2026-05-08 07:30 36.59177 -16.08540 35988 ft 432 kts 242°
2026-05-08 07:31 36.56596 -16.15281 35990 ft 432 kts 242°
2026-05-08 07:31 36.54011 -16.22018 35985 ft 432 kts 242°
2026-05-08 07:32 36.51439 -16.28707 35984 ft 432 kts 242°
2026-05-08 07:32 36.48847 -16.35433 36016 ft 432 kts 242°
2026-05-08 07:33 36.46254 -16.42150 35982 ft 431 kts 242°
2026-05-08 07:33 36.43656 -16.48863 35982 ft 431 kts 242°
2026-05-08 07:34 36.41056 -16.55567 35982 ft 431 kts 242°
2026-05-08 07:34 36.38455 -16.62258 35983 ft 431 kts 242°
2026-05-08 07:35 36.35844 -16.68964 35982 ft 431 kts 242°
2026-05-08 07:35 36.33234 -16.75652 35985 ft 431 kts 242°
2026-05-08 07:36 36.30619 -16.82339 35989 ft 431 kts 242°
2026-05-08 07:36 36.28000 -16.89020 35985 ft 431 kts 242°
2026-05-08 07:37 36.25380 -16.95692 35972 ft 431 kts 241°
2026-05-08 07:37 36.22769 -17.02326 35987 ft 431 kts 242°
2026-05-08 07:38 36.20139 -17.08993 35990 ft 432 kts 242°
2026-05-08 07:38 36.17498 -17.15677 35983 ft 432 kts 242°
2026-05-08 07:39 36.14852 -17.22358 35984 ft 432 kts 242°
2026-05-08 07:39 36.12203 -17.29035 35986 ft 432 kts 242°
2026-05-08 07:40 36.09549 -17.35708 35981 ft 432 kts 242°
2026-05-08 07:40 36.06891 -17.42378 35987 ft 433 kts 242°
2026-05-08 07:41 36.04212 -17.49084 35975 ft 436 kts 242°
2026-05-08 07:41 36.01524 -17.55804 35983 ft 436 kts 242°
2026-05-08 07:42 35.98830 -17.62522 35982 ft 436 kts 242°
2026-05-08 07:42 35.96132 -17.69238 35979 ft 437 kts 242°
2026-05-08 07:43 35.93428 -17.75953 35985 ft 437 kts 242°
2026-05-08 07:43 35.90700 -17.82711 35978 ft 443 kts 242°
2026-05-08 07:44 35.87949 -17.89515 35974 ft 444 kts 242°
2026-05-08 07:44 35.85190 -17.96326 35976 ft 443 kts 242°
2026-05-08 07:45 35.82439 -18.03103 35977 ft 442 kts 242°
2026-05-08 07:45 35.79684 -18.09874 35987 ft 442 kts 243°
2026-05-08 07:46 35.76912 -18.16673 35976 ft 446 kts 243°
2026-05-08 07:46 35.74119 -18.23509 35974 ft 447 kts 243°
2026-05-08 07:47 35.71322 -18.30340 35973 ft 447 kts 243°
2026-05-08 07:47 35.68521 -18.37170 35974 ft 447 kts 243°
2026-05-08 07:48 35.65734 -18.43948 35983 ft 447 kts 243°
2026-05-08 07:48 35.62914 -18.50790 35975 ft 450 kts 244°
2026-05-08 07:49 35.60077 -18.57663 35973 ft 451 kts 244°
2026-05-08 07:49 35.57234 -18.64537 35972 ft 451 kts 244°
2026-05-08 07:50 35.54387 -18.71405 35975 ft 451 kts 243°
2026-05-08 07:50 35.51534 -18.78274 35974 ft 451 kts 243°
2026-05-08 07:51 35.48678 -18.85135 35973 ft 451 kts 243°
2026-05-08 07:51 35.45820 -18.91986 35974 ft 450 kts 243°
2026-05-08 07:52 35.42965 -18.98816 35973 ft 450 kts 243°
2026-05-08 07:52 35.40105 -19.05644 35979 ft 450 kts 243°
2026-05-08 07:53 35.37241 -19.12468 35974 ft 450 kts 244°
2026-05-08 07:53 35.34365 -19.19305 35974 ft 452 kts 244°
2026-05-08 07:54 35.31498 -19.26110 35971 ft 453 kts 244°
2026-05-08 07:54 35.28606 -19.32958 35971 ft 453 kts 244°
2026-05-08 07:55 35.25709 -19.39804 35969 ft 453 kts 244°
2026-05-08 07:55 35.22810 -19.46642 35977 ft 453 kts 244°
2026-05-08 07:56 35.19900 -19.53489 35971 ft 454 kts 244°
2026-05-08 07:56 35.16981 -19.60346 35971 ft 455 kts 244°
2026-05-08 07:57 35.14057 -19.67200 35969 ft 455 kts 244°
2026-05-08 07:57 35.11128 -19.74053 35969 ft 455 kts 244°
2026-05-08 07:58 35.08193 -19.80902 35960 ft 455 kts 245°
2026-05-08 07:58 35.05258 -19.87740 35971 ft 455 kts 245°
2026-05-08 07:59 35.02320 -19.94572 35970 ft 455 kts 245°
2026-05-08 07:59 34.99378 -20.01400 35968 ft 455 kts 245°
2026-05-08 08:00 34.96420 -20.08219 35964 ft 455 kts 245°
2026-05-08 08:00 34.93451 -20.15030 35959 ft 455 kts 245°
2026-05-08 08:01 34.90981 -20.20693 35970 ft 456 kts 245°
2026-05-08 08:01 34.87517 -20.28621 35972 ft 456 kts 245°
2026-05-08 08:02 34.85016 -20.34336 35970 ft 456 kts 245°
2026-05-08 08:02 34.82050 -20.41101 35965 ft 456 kts 245°
2026-05-08 08:03 34.79058 -20.47910 35963 ft 456 kts 246°
2026-05-08 08:03 34.76066 -20.54703 35975 ft 455 kts 246°
2026-05-08 08:04 34.73078 -20.61477 35970 ft 455 kts 246°
2026-05-08 08:04 34.70087 -20.68246 35970 ft 454 kts 246°
2026-05-08 08:05 34.67091 -20.75013 35977 ft 454 kts 246°
2026-05-08 08:05 34.64095 -20.81765 35965 ft 454 kts 247°
2026-05-08 08:06 34.61094 -20.88514 35969 ft 454 kts 247°
2026-05-08 08:06 34.58092 -20.95254 35968 ft 454 kts 247°
2026-05-08 08:07 34.55085 -21.01991 35969 ft 454 kts 247°
2026-05-08 08:07 34.52072 -21.08728 35970 ft 454 kts 247°
2026-05-08 08:08 34.49055 -21.15461 35950 ft 454 kts 247°
2026-05-08 08:08 34.46058 -21.22136 35969 ft 454 kts 247°
2026-05-08 08:09 34.43037 -21.28854 35971 ft 454 kts 247°
2026-05-08 08:09 34.40012 -21.35566 35971 ft 454 kts 247°
2026-05-08 08:10 34.36983 -21.42275 35971 ft 454 kts 247°
2026-05-08 08:10 34.33951 -21.48975 35956 ft 454 kts 247°
2026-05-08 08:11 34.30914 -21.55674 35968 ft 454 kts 247°
2026-05-08 08:11 34.27875 -21.62366 35960 ft 454 kts 247°
2026-05-08 08:12 34.24835 -21.69043 35971 ft 452 kts 247°
2026-05-08 08:12 34.21800 -21.75700 35974 ft 452 kts 247°
2026-05-08 08:13 34.18764 -21.82349 35974 ft 452 kts 247°
2026-05-08 08:13 34.15720 -21.89001 35980 ft 452 kts 247°
2026-05-08 08:14 34.12675 -21.95642 35976 ft 452 kts 247°
2026-05-08 08:14 34.09626 -22.02280 35973 ft 452 kts 247°
2026-05-08 08:15 34.06571 -22.08915 35972 ft 452 kts 247°
2026-05-08 08:15 34.03513 -22.15547 35973 ft 452 kts 247°
2026-05-08 08:16 34.00453 -22.22172 35977 ft 452 kts 247°
2026-05-08 08:16 33.97388 -22.28794 35976 ft 452 kts 247°
2026-05-08 08:17 33.94319 -22.35410 35977 ft 453 kts 247°
2026-05-08 08:17 33.91246 -22.42023 35985 ft 452 kts 247°
2026-05-08 08:18 33.88191 -22.48585 35976 ft 452 kts 247°